| time (UTC) | temp C | wind direction | speed KPH | gust KPH | rain 1hr cm | rain 24hr cm | rain mn cm | humidity % | barometer mb |
| 20260902231204 | 18 | 175 | 3.2 | 11.3 | 0.00 | 0.03 | 0.00 | 75 | 1014.4 |
| 20260902230730 | 19 | 180 | 3.2 | 11.3 | 0.00 | 0.03 | 0.00 | 75 | 1014.6 |
| 20260902230204 | 19 | 124 | 3.2 | 11.3 | 0.00 | 0.03 | 0.03 | 75 | 1014.6 |
| 20260902225704 | 19 | 243 | 3.2 | 11.3 | 0.00 | 0.03 | 0.03 | 75 | 1014.6 |
| 20260902225204 | 19 | 197 | 3.2 | 9.7 | 0.00 | 0.03 | 0.03 | 75 | 1014.6 |
| 20260902224704 | 19 | 234 | 4.8 | 11.3 | 0.00 | 0.03 | 0.03 | 75 | 1014.7 |
| 20260902224204 | 19 | 235 | 3.2 | 20.9 | 0.00 | 0.03 | 0.03 | 75 | 1014.7 |
| 20260902223705 | 19 | 193 | 3.2 | 20.9 | 0.00 | 0.03 | 0.03 | 75 | 1014.5 |
| 20260902223203 | 19 | 255 | 4.8 | 14.5 | 0.00 | 0.03 | 0.03 | 75 | 1014.5 |
| 20260902222704 | 19 | 217 | 3.2 | 14.5 | 0.00 | 0.03 | 0.03 | 75 | 1014.3 |
| 20260902222205 | 19 | 185 | 1.6 | 14.5 | 0.00 | 0.03 | 0.03 | 75 | 1014.2 |
| 20260902220704 | 19 | 168 | 4.8 | 20.9 | 0.00 | 0.03 | 0.03 | 75 | 1014.2 |
| 20260902215204 | 19 | 189 | 1.6 | 17.7 | 0.00 | 0.03 | 0.03 | 75 | 1014.0 |
| 20260902214705 | 19 | 217 | 3.2 | 17.7 | 0.00 | 0.03 | 0.03 | 75 | 1014.3 |
| 20260902214204 | 19 | 207 | 3.2 | 16.1 | 0.00 | 0.03 | 0.03 | 75 | 1014.2 |
| 20260902213704 | 19 | 216 | 3.2 | 16.1 | 0.00 | 0.03 | 0.03 | 75 | 1014.3 |
| 20260902213204 | 19 | 203 | 4.8 | 11.3 | 0.00 | 0.03 | 0.03 | 75 | 1014.2 |
| 20260902212704 | 19 | 197 | 3.2 | 14.5 | 0.00 | 0.03 | 0.03 | 75 | 1014.3 |
| 20260902212205 | 19 | 195 | 3.2 | 14.5 | 0.00 | 0.03 | 0.03 | 75 | 1014.3 |
| 20260902211704 | 19 | 264 | 3.2 | 11.3 | 0.00 | 0.03 | 0.03 | 75 | 1014.5 |
| 20260902211204 | 19 | 240 | 4.8 | 11.3 | 0.00 | 0.03 | 0.03 | 74 | 1014.5 |
| 20260902210704 | 19 | 219 | 3.2 | 11.3 | 0.00 | 0.03 | 0.03 | 74 | 1014.4 |
| 20260902210204 | 19 | 183 | 4.8 | 11.3 | 0.00 | 0.03 | 0.03 | 74 | 1014.5 |
| 20260902205704 | 19 | 228 | 4.8 | 16.1 | 0.00 | 0.03 | 0.03 | 74 | 1014.4 |
| 20260902205204 | 19 | 175 | 3.2 | 16.1 | 0.00 | 0.03 | 0.03 | 73 | 1014.3 |
| 20260902204724 | 19 | 241 | 3.2 | 8.0 | 0.00 | 0.03 | 0.03 | 73 | 1014.3 |
| 20260902204204 | 19 | 261 | 3.2 | 6.4 | 0.00 | 0.03 | 0.03 | 72 | 1014.2 |
| 20260902203707 | 19 | 213 | 1.6 | 9.7 | 0.00 | 0.03 | 0.03 | 72 | 1014.2 |
| 20260902203204 | 19 | 186 | 0.0 | 9.7 | 0.00 | 0.03 | 0.03 | 71 | 1014.2 |
| 20260902202704 | 18 | 176 | 3.2 | 6.4 | 0.00 | 0.03 | 0.03 | 71 | 1014.3 |
| 20260902202209 | 19 | 107 | 1.6 | 6.4 | 0.00 | 0.03 | 0.03 | 71 | 1014.4 |
| 20260902201704 | 18 | 173 | 3.2 | 9.7 | 0.00 | 0.03 | 0.03 | 71 | 1014.4 |
| 20260902201204 | 18 | 189 | 1.6 | 9.7 | 0.00 | 0.03 | 0.03 | 71 | 1014.5 |
| 20260902200704 | 18 | 200 | 3.2 | 9.7 | 0.00 | 0.03 | 0.03 | 71 | 1014.4 |
| 20260902195705 | 19 | 125 | 3.2 | 9.7 | 0.00 | 0.03 | 0.03 | 72 | 1014.4 |
| 20260902195204 | 19 | 173 | 3.2 | 9.7 | 0.00 | 0.03 | 0.03 | 72 | 1014.6 |
| 20260902194704 | 19 | 189 | 3.2 | 9.7 | 0.00 | 0.03 | 0.03 | 72 | 1014.6 |
| 20260902193704 | 19 | 176 | 3.2 | 9.7 | 0.00 | 0.03 | 0.03 | 73 | 1014.7 |
| 20260902193204 | 18 | 210 | 1.6 | 9.7 | 0.00 | 0.03 | 0.03 | 73 | 1014.7 |
| 20260902192704 | 18 | 248 | 3.2 | 8.0 | 0.00 | 0.03 | 0.03 | 73 | 1014.4 |
| 20260902192206 | 18 | 169 | 1.6 | 9.7 | 0.00 | 0.03 | 0.03 | 73 | 1014.3 |
| 20260902191704 | 18 | 180 | 3.2 | 9.7 | 0.00 | 0.03 | 0.03 | 73 | 1014.3 |
| 20260902191204 | 18 | 213 | 3.2 | 9.7 | 0.00 | 0.03 | 0.03 | 73 | 1014.3 |
| 20260902190704 | 18 | 214 | 3.2 | 9.7 | 0.00 | 0.03 | 0.03 | 74 | 1014.2 |
| 20260902185704 | 18 | 178 | 3.2 | 16.1 | 0.00 | 0.03 | 0.03 | 74 | 1014.3 |
| 20260902185205 | 18 | 196 | 3.2 | 16.1 | 0.00 | 0.03 | 0.03 | 74 | 1014.4 |
| 20260902184204 | 18 | 176 | 3.2 | 11.3 | 0.00 | 0.03 | 0.03 | 74 | 1014.4 |
| 20260902183704 | 18 | 219 | 3.2 | 11.3 | 0.00 | 0.03 | 0.03 | 75 | 1014.5 |
| 20260902183204 | 18 | 183 | 4.8 | 14.5 | 0.00 | 0.03 | 0.03 | 75 | 1014.4 |
| 20260902182704 | 18 | 204 | 3.2 | 14.5 | 0.00 | 0.03 | 0.03 | 75 | 1014.4 |
| 20260902182204 | 18 | 162 | 3.2 | 14.5 | 0.00 | 0.03 | 0.03 | 76 | 1014.4 |
| 20260902181704 | 18 | 161 | 1.6 | 17.7 | 0.00 | 0.03 | 0.03 | 76 | 1014.5 |
| 20260902181205 | 18 | 113 | 3.2 | 17.7 | 0.00 | 0.03 | 0.03 | 76 | 1014.5 |
| 20260902180204 | 18 | 192 | 3.2 | 16.1 | 0.00 | 0.03 | 0.03 | 76 | 1014.7 |
| 20260902175204 | 18 | 121 | 3.2 | 16.1 | 0.00 | 0.03 | 0.03 | 77 | 1014.8 |
| 20260902174705 | 19 | 168 | 3.2 | 11.3 | 0.00 | 0.03 | 0.03 | 77 | 1014.9 |
| 20260902174204 | 19 | 147 | 4.8 | 11.3 | 0.00 | 0.03 | 0.03 | 77 | 1014.7 |
| 20260902173704 | 19 | 188 | 3.2 | 11.3 | 0.00 | 0.03 | 0.03 | 77 | 1014.8 |
| 20260902173204 | 19 | 166 | 3.2 | 22.5 | 0.00 | 0.03 | 0.03 | 77 | 1014.8 |
| 20260902172705 | 19 | 173 | 4.8 | 22.5 | 0.00 | 0.03 | 0.03 | 76 | 1014.8 |
| 20260902172204 | 19 | 172 | 3.2 | 22.5 | 0.00 | 0.03 | 0.03 | 76 | 1014.8 |
| 20260902171704 | 19 | 154 | 8.0 | 19.3 | 0.00 | 0.03 | 0.03 | 76 | 1014.8 |
| 20260902171203 | 19 | 169 | 4.8 | 19.3 | 0.00 | 0.03 | 0.03 | 76 | 1014.6 |
| 20260902170704 | 19 | 133 | 3.2 | 16.1 | 0.00 | 0.03 | 0.03 | 75 | 1014.7 |
| 20260902170205 | 19 | 151 | 4.8 | 16.1 | 0.00 | 0.03 | 0.03 | 75 | 1014.8 |
| 20260902165705 | 20 | 200 | 3.2 | 16.1 | 0.00 | 0.03 | 0.03 | 74 | 1014.8 |
| 20260902165204 | 20 | 261 | 4.8 | 16.1 | 0.00 | 0.03 | 0.03 | 74 | 1014.8 |
| 20260902164728 | 20 | 0 | 6.4 | 8.0 | 0.00 | 0.03 | 0.03 | 73 | 1014.9 |
| 20260902164204 | 20 | 164 | 3.2 | 14.5 | 0.00 | 0.03 | 0.03 | 73 | 1015.0 |
| 20260902163704 | 20 | 159 | 3.2 | 19.3 | 0.00 | 0.03 | 0.03 | 73 | 1014.9 |
| 20260902162705 | 20 | 195 | 4.8 | 17.7 | 0.00 | 0.03 | 0.03 | 72 | 1015.2 |
| 20260902160705 | 21 | 206 | 4.8 | 16.1 | 0.00 | 0.03 | 0.03 | 67 | 1015.1 |
| 20260902160203 | 21 | 149 | 8.0 | 19.3 | 0.00 | 0.03 | 0.03 | 66 | 1015.0 |
| 20260902155704 | 21 | 223 | 4.8 | 19.3 | 0.00 | 0.03 | 0.03 | 67 | 1015.2 |
| 20260902155204 | 21 | 123 | 1.6 | 17.7 | 0.00 | 0.03 | 0.03 | 67 | 1015.3 |
| 20260902154704 | 20 | 183 | 4.8 | 17.7 | 0.00 | 0.03 | 0.03 | 67 | 1015.4 |
| 20260902154205 | 21 | 240 | 3.2 | 17.7 | 0.00 | 0.03 | 0.03 | 67 | 1015.3 |
| 20260902153704 | 21 | 172 | 8.0 | 17.7 | 0.00 | 0.03 | 0.03 | 66 | 1015.4 |
| 20260902153204 | 20 | 159 | 4.8 | 17.7 | 0.00 | 0.03 | 0.03 | 67 | 1015.5 |
| 20260902152205 | 20 | 147 | 4.8 | 16.1 | 0.00 | 0.03 | 0.03 | 66 | 1015.5 |
| 20260902151705 | 21 | 131 | 4.8 | 16.1 | 0.00 | 0.03 | 0.03 | 66 | 1015.6 |
| 20260902151205 | 21 | 165 | 4.8 | 17.7 | 0.00 | 0.03 | 0.03 | 67 | 1015.5 |
| 20260902150705 | 20 | 71 | 3.2 | 17.7 | 0.00 | 0.03 | 0.03 | 67 | 1015.6 |
| 20260902150204 | 20 | 175 | 4.8 | 19.3 | 0.00 | 0.03 | 0.03 | 66 | 1015.8 |
| 20260902145707 | 20 | 188 | 4.8 | 19.3 | 0.00 | 0.03 | 0.03 | 66 | 1015.8 |
| 20260902145211 | 20 | 204 | 4.8 | 19.3 | 0.00 | 0.03 | 0.03 | 66 | 1015.8 |
| 20260902144704 | 20 | 141 | 6.4 | 17.7 | 0.00 | 0.03 | 0.03 | 65 | 1015.8 |
| 20260902144205 | 20 | 182 | 3.2 | 17.7 | 0.00 | 0.03 | 0.03 | 65 | 1015.8 |
| 20260902143704 | 20 | 130 | 4.8 | 17.7 | 0.00 | 0.03 | 0.03 | 65 | 1015.9 |
| 20260902143206 | 20 | 234 | 4.8 | 20.9 | 0.00 | 0.03 | 0.03 | 64 | 1015.9 |
| 20260902142705 | 21 | 217 | 6.4 | 20.9 | 0.00 | 0.03 | 0.03 | 64 | 1015.9 |
| 20260902142206 | 21 | 240 | 4.8 | 20.9 | 0.00 | 0.03 | 0.03 | 64 | 1016.0 |
| 20260902141704 | 21 | 230 | 4.8 | 20.9 | 0.00 | 0.03 | 0.03 | 64 | 1016.0 |
| 20260902141204 | 20 | 240 | 3.2 | 20.9 | 0.00 | 0.03 | 0.03 | 64 | 1016.1 |
| 20260902140704 | 20 | 279 | 6.4 | 17.7 | 0.00 | 0.03 | 0.03 | 64 | 1016.1 |
| 20260902140211 | 20 | 168 | 4.8 | 17.7 | 0.00 | 0.03 | 0.03 | 65 | 1016.1 |
| 20260902135706 | 20 | 237 | 3.2 | 17.7 | 0.00 | 0.03 | 0.03 | 65 | 1016.1 |
| 20260902135205 | 20 | 204 | 6.4 | 17.7 | 0.00 | 0.03 | 0.03 | 65 | 1016.2 |
| 20260902134704 | 20 | 176 | 4.8 | 17.7 | 0.00 | 0.03 | 0.03 | 65 | 1016.2 |
| 20260902133704 | 20 | 48 | 4.8 | 17.7 | 0.00 | 0.03 | 0.03 | 65 | 1016.3 |
| 20260902133204 | 20 | 199 | 6.4 | 22.5 | 0.00 | 0.03 | 0.03 | 65 | 1016.3 |
| 20260902132704 | 20 | 83 | 8.0 | 22.5 | 0.00 | 0.03 | 0.03 | 64 | 1016.3 |
| 20260902132203 | 20 | 217 | 4.8 | 22.5 | 0.00 | 0.03 | 0.03 | 68 | 1016.3 |
| 20260902131704 | 20 | 90 | 6.4 | 17.7 | 0.00 | 0.03 | 0.03 | 68 | 1016.4 |
| 20260902131205 | 20 | 230 | 6.4 | 16.1 | 0.00 | 0.03 | 0.03 | 68 | 1016.4 |
| 20260902130706 | 20 | 120 | 4.8 | 16.1 | 0.00 | 0.03 | 0.03 | 69 | 1016.5 |
| 20260902130204 | 20 | 188 | 4.8 | 16.1 | 0.00 | 0.03 | 0.03 | 69 | 1016.5 |
| 20260902125204 | 20 | 165 | 6.4 | 20.9 | 0.00 | 0.03 | 0.03 | 67 | 1016.5 |
| 20260902124703 | 20 | 207 | 3.2 | 14.5 | 0.00 | 0.03 | 0.03 | 69 | 1016.6 |
| 20260902124205 | 20 | 265 | 4.8 | 14.5 | 0.00 | 0.03 | 0.03 | 71 | 1016.6 |
| 20260902123706 | 20 | 206 | 4.8 | 16.1 | 0.00 | 0.03 | 0.03 | 73 | 1016.7 |
| 20260902123203 | 20 | 228 | 4.8 | 16.1 | 0.00 | 0.03 | 0.03 | 74 | 1016.7 |
| 20260902122704 | 20 | 192 | 3.2 | 16.1 | 0.00 | 0.03 | 0.03 | 75 | 1016.7 |
| 20260902121704 | 20 | 185 | 6.4 | 17.7 | 0.00 | 0.03 | 0.03 | 74 | 1016.8 |
| 20260902121205 | 20 | 118 | 3.2 | 17.7 | 0.00 | 0.03 | 0.03 | 73 | 1016.8 |
| 20260902120703 | 20 | 189 | 4.8 | 16.1 | 0.00 | 0.03 | 0.03 | 73 | 1016.8 |
| 20260902120206 | 20 | 243 | 3.2 | 16.1 | 0.00 | 0.03 | 0.03 | 73 | 1016.9 |
| 20260902115703 | 20 | 220 | 4.8 | 11.3 | 0.00 | 0.03 | 0.03 | 74 | 1016.9 |
| 20260902115204 | 20 | 189 | 3.2 | 11.3 | 0.03 | 0.03 | 0.03 | 74 | 1016.8 |
| 20260902114704 | 20 | 252 | 6.4 | 11.3 | 0.03 | 0.03 | 0.03 | 75 | 1016.8 |
| 20260902114204 | 20 | 261 | 4.8 | 8.0 | 0.03 | 0.03 | 0.03 | 76 | 1016.9 |
| 20260902113709 | 19 | 176 | 1.6 | 11.3 | 0.03 | 0.03 | 0.03 | 76 | 1016.9 |
| 20260902112706 | 18 | 227 | 3.2 | 8.0 | 0.03 | 0.03 | 0.03 | 77 | 1017.1 |
| 20260902112204 | 18 | 188 | 1.6 | 8.0 | 0.03 | 0.03 | 0.03 | 77 | 1017.2 |
| 20260902111204 | 18 | 192 | 0.0 | 11.3 | 0.03 | 0.03 | 0.03 | 77 | 1017.4 |
| 20260902110704 | 18 | 176 | 3.2 | 11.3 | 0.03 | 0.03 | 0.03 | 77 | 1017.6 |
| 20260902110228 | 18 | 199 | 3.2 | 11.3 | 0.03 | 0.03 | 0.03 | 77 | 1017.6 |
| 20260902105205 | 18 | 212 | 3.2 | 11.3 | 0.00 | 0.00 | 0.00 | 77 | 1017.7 |
| 20260902104204 | 18 | 182 | 3.2 | 9.7 | 0.00 | 0.00 | 0.00 | 76 | 1017.8 |
| 20260902103704 | 19 | 186 | 3.2 | 9.7 | 0.00 | 0.00 | 0.00 | 76 | 1017.6 |
| 20260902103204 | 19 | 183 | 3.2 | 9.7 | 0.00 | 0.00 | 0.00 | 76 | 1017.6 |
| 20260902102725 | 19 | 169 | 1.6 | 9.7 | 0.00 | 0.00 | 0.00 | 76 | 1017.6 |
| 20260902101704 | 19 | 183 | 1.6 | 6.4 | 0.00 | 0.00 | 0.00 | 76 | 1017.7 |
| 20260902101205 | 19 | 180 | 1.6 | 4.8 | 0.00 | 0.00 | 0.00 | 76 | 1017.7 |
| 20260902100705 | 19 | 188 | 1.6 | 6.4 | 0.00 | 0.00 | 0.00 | 76 | 1017.6 |
| 20260902100204 | 18 | 207 | 1.6 | 9.7 | 0.00 | 0.00 | 0.00 | 76 | 1017.6 |
| 20260902095704 | 18 | 206 | 1.6 | 9.7 | 0.00 | 0.00 | 0.00 | 76 | 1017.6 |
| 20260902095204 | 18 | 203 | 3.2 | 9.7 | 0.00 | 0.00 | 0.00 | 76 | 1017.6 |
| 20260902094704 | 18 | 183 | 3.2 | 9.7 | 0.00 | 0.00 | 0.00 | 76 | 1017.6 |
| 20260902094204 | 18 | 173 | 3.2 | 9.7 | 0.00 | 0.00 | 0.00 | 77 | 1017.7 |
| 20260902093704 | 18 | 224 | 3.2 | 6.4 | 0.00 | 0.00 | 0.00 | 77 | 1017.6 |
| 20260902093204 | 18 | 183 | 1.6 | 6.4 | 0.00 | 0.00 | 0.00 | 77 | 1017.6 |
| 20260902092704 | 18 | 186 | 3.2 | 8.0 | 0.00 | 0.00 | 0.00 | 76 | 1017.8 |
| 20260902092205 | 18 | 193 | 3.2 | 8.0 | 0.00 | 0.00 | 0.00 | 76 | 1017.8 |
| 20260902091708 | 18 | 168 | 1.6 | 8.0 | 0.00 | 0.00 | 0.00 | 76 | 1017.8 |
| 20260902091205 | 18 | 196 | 1.6 | 8.0 | 0.00 | 0.00 | 0.00 | 76 | 1017.7 |
| 20260902090704 | 18 | 197 | 3.2 | 8.0 | 0.00 | 0.00 | 0.00 | 76 | 1017.7 |
| 20260902090209 | 18 | 206 | 1.6 | 8.0 | 0.00 | 0.00 | 0.00 | 76 | 1017.7 |
| 20260902085704 | 18 | 217 | 1.6 | 8.0 | 0.00 | 0.00 | 0.00 | 76 | 1017.6 |
| 20260902085207 | 18 | 209 | 3.2 | 6.4 | 0.00 | 0.00 | 0.00 | 76 | 1017.7 |
| 20260902084707 | 18 | 188 | 1.6 | 6.4 | 0.00 | 0.00 | 0.00 | 76 | 1017.6 |
| 20260902084204 | 18 | 179 | 3.2 | 6.4 | 0.00 | 0.00 | 0.00 | 76 | 1017.6 |
| 20260902083704 | 18 | 155 | 1.6 | 6.4 | 0.00 | 0.00 | 0.00 | 76 | 1017.6 |
| 20260902083205 | 18 | 178 | 1.6 | 6.4 | 0.00 | 0.00 | 0.00 | 76 | 1017.5 |
| 20260902082705 | 18 | 196 | 1.6 | 6.4 | 0.00 | 0.00 | 0.00 | 77 | 1017.6 |
| 20260902082205 | 18 | 195 | 1.6 | 4.8 | 0.00 | 0.00 | 0.00 | 77 | 1017.5 |
| 20260902081204 | 18 | 200 | 1.6 | 8.0 | 0.00 | 0.00 | 0.00 | 77 | 1017.5 |
| 20260902080704 | 18 | 200 | 1.6 | 8.0 | 0.00 | 0.00 | 0.00 | 77 | 1017.4 |
| 20260902080205 | 18 | 200 | 1.6 | 6.4 | 0.00 | 0.00 | 0.00 | 77 | 1017.3 |
| 20260902075705 | 17 | 199 | 1.6 | 9.7 | 0.00 | 0.00 | 0.00 | 77 | 1017.3 |
| 20260902075205 | 17 | 197 | 1.6 | 9.7 | 0.00 | 0.00 | 0.00 | 77 | 1017.2 |
| 20260902074205 | 17 | 238 | 0.0 | 6.4 | 0.00 | 0.00 | 0.00 | 77 | 1017.3 |
| 20260902073705 | 17 | 252 | 1.6 | 8.0 | 0.00 | 0.00 | 0.00 | 77 | 1017.3 |
| 20260902073204 | 17 | 255 | 4.8 | 8.0 | 0.00 | 0.00 | 0.00 | 77 | 1017.3 |
| 20260902072706 | 17 | 230 | 1.6 | 8.0 | 0.00 | 0.00 | 0.00 | 77 | 1017.3 |
| 20260902072205 | 17 | 226 | 1.6 | 4.8 | 0.00 | 0.00 | 0.00 | 77 | 1017.3 |
| 20260902071205 | 17 | 221 | 1.6 | 4.8 | 0.00 | 0.00 | 0.00 | 77 | 1017.3 |
| 20260902070204 | 16 | 223 | 0.0 | 6.4 | 0.00 | 0.00 | 0.00 | 77 | 1017.3 |
| 20260902065707 | 16 | 223 | 0.0 | 6.4 | 0.00 | 0.00 | 0.00 | 77 | 1017.2 |
| 20260902065205 | 16 | 224 | 0.0 | 3.2 | 0.00 | 0.00 | 0.00 | 77 | 1017.2 |
| 20260902064704 | 16 | 223 | 0.0 | 4.8 | 0.00 | 0.00 | 0.00 | 77 | 1017.1 |
| 20260902064204 | 16 | 223 | 0.0 | 4.8 | 0.00 | 0.00 | 0.00 | 77 | 1017.0 |
| 20260902063704 | 16 | 224 | 1.6 | 4.8 | 0.00 | 0.00 | 0.00 | 77 | 1017.2 |
| 20260902063204 | 16 | 226 | 0.0 | 3.2 | 0.00 | 0.00 | 0.00 | 77 | 1017.2 |
| 20260902062705 | 16 | 226 | 0.0 | 3.2 | 0.00 | 0.00 | 0.00 | 77 | 1017.3 |
| 20260902061704 | 16 | 226 | 0.0 | 1.6 | 0.00 | 0.00 | 0.00 | 77 | 1017.0 |
| 20260902061204 | 16 | 226 | 0.0 | 1.6 | 0.00 | 0.00 | 0.00 | 77 | 1017.1 |
| 20260902060705 | 16 | 226 | 0.0 | 3.2 | 0.00 | 0.00 | 0.00 | 77 | 1017.0 |
| 20260902060205 | 15 | 226 | 0.0 | 3.2 | 0.00 | 0.00 | 0.00 | 77 | 1017.1 |
| 20260902055705 | 15 | 226 | 0.0 | 3.2 | 0.00 | 0.00 | 0.00 | 77 | 1017.0 |
| 20260902055204 | 15 | 226 | 0.0 | 1.6 | 0.00 | 0.00 | 0.00 | 77 | 1017.0 |
| 20260902054705 | 15 | 226 | 0.0 | 1.6 | 0.00 | 0.00 | 0.00 | 77 | 1016.9 |
| 20260902054206 | 15 | 226 | 0.0 | 1.6 | 0.00 | 0.00 | 0.00 | 77 | 1016.9 |
| 20260902053704 | 15 | 226 | 0.0 | 1.6 | 0.00 | 0.00 | 0.00 | 77 | 1016.9 |
| 20260902053204 | 15 | 226 | 0.0 | 1.6 | 0.00 | 0.00 | 0.00 | 77 | 1016.8 |
| 20260902052704 | 15 | 226 | 0.0 | 1.6 | 0.00 | 0.00 | 0.00 | 77 | 1016.9 |
| 20260902052210 | 15 | 226 | 0.0 | 1.6 | 0.00 | 0.00 | 0.00 | 78 | 1016.9 |
| 20260902051704 | 15 | 226 | 0.0 | 1.6 | 0.00 | 0.00 | 0.00 | 78 | 1016.9 |
| 20260902051204 | 15 | 226 | 0.0 | 1.6 | 0.00 | 0.00 | 0.00 | 78 | 1016.8 |
| 20260902050704 | 16 | 226 | 0.0 | 1.6 | 0.00 | 0.00 | 0.00 | 78 | 1016.9 |
| 20260902045704 | 16 | 226 | 0.0 | 1.6 | 0.00 | 0.00 | 0.00 | 78 | 1016.9 |
| 20260902045205 | 16 | 226 | 0.0 | 1.6 | 0.00 | 0.00 | 0.00 | 78 | 1016.9 |
| 20260902044705 | 16 | 226 | 0.0 | 1.6 | 0.00 | 0.00 | 0.00 | 78 | 1016.9 |
| 20260902044204 | 16 | 226 | 0.0 | 1.6 | 0.00 | 0.00 | 0.00 | 78 | 1016.9 |
| 20260902043704 | 16 | 226 | 0.0 | 1.6 | 0.00 | 0.00 | 0.00 | 78 | 1016.9 |
| 20260902043203 | 16 | 226 | 0.0 | 1.6 | 0.00 | 0.00 | 0.00 | 78 | 1016.8 |
| 20260902042705 | 16 | 226 | 0.0 | 1.6 | 0.00 | 0.00 | 0.00 | 78 | 1016.9 |
| 20260902042206 | 16 | 226 | 0.0 | 1.6 | 0.00 | 0.00 | 0.00 | 78 | 1017.0 |
| 20260902041705 | 16 | 226 | 0.0 | 1.6 | 0.00 | 0.00 | 0.00 | 78 | 1017.0 |
| 20260902041205 | 16 | 226 | 0.0 | 1.6 | 0.00 | 0.00 | 0.00 | 78 | 1017.0 |
| 20260902040704 | 16 | 226 | 0.0 | 0.0 | 0.00 | 0.00 | 0.00 | 78 | 1016.9 |
| 20260902040204 | 16 | 226 | 0.0 | 0.0 | 0.00 | 0.00 | 0.00 | 78 | 1017.0 |
| 20260902035205 | 16 | 226 | 0.0 | 1.6 | 0.00 | 0.00 | 0.00 | 77 | 1017.0 |
| 20260902034705 | 16 | 226 | 0.0 | 1.6 | 0.00 | 0.00 | 0.00 | 77 | 1017.1 |
| 20260902034204 | 16 | 226 | 0.0 | 3.2 | 0.00 | 0.00 | 0.00 | 77 | 1017.1 |
| 20260902033704 | 16 | 226 | 0.0 | 3.2 | 0.00 | 0.00 | 0.00 | 77 | 1017.1 |
| 20260902032704 | 16 | 226 | 0.0 | 3.2 | 0.00 | 0.00 | 0.00 | 77 | 1017.2 |
| 20260902032204 | 16 | 226 | 0.0 | 3.2 | 0.00 | 0.00 | 0.00 | 77 | 1017.1 |
| 20260902031705 | 16 | 226 | 0.0 | 1.6 | 0.00 | 0.00 | 0.00 | 77 | 1017.1 |
| 20260902031204 | 16 | 226 | 0.0 | 3.2 | 0.00 | 0.00 | 0.00 | 77 | 1017.1 |
| 20260902030709 | 16 | 226 | 0.0 | 3.2 | 0.00 | 0.00 | 0.00 | 77 | 1017.0 |
| 20260902030206 | 16 | 226 | 0.0 | 6.4 | 0.00 | 0.00 | 0.00 | 77 | 1017.0 |
| 20260902025705 | 16 | 226 | 0.0 | 6.4 | 0.00 | 0.00 | 0.00 | 77 | 1017.0 |
| 20260902025205 | 16 | 226 | 1.6 | 3.2 | 0.00 | 0.00 | 0.00 | 77 | 1017.1 |
| 20260902024703 | 16 | 227 | 1.6 | 3.2 | 0.00 | 0.00 | 0.00 | 77 | 1017.1 |
| 20260902023704 | 16 | 227 | 0.0 | 3.2 | 0.00 | 0.00 | 0.00 | 77 | 1017.0 |
| 20260902023206 | 16 | 227 | 0.0 | 3.2 | 0.00 | 0.00 | 0.00 | 77 | 1017.0 |
| 20260902022704 | 16 | 227 | 0.0 | 3.2 | 0.00 | 0.00 | 0.00 | 77 | 1017.0 |
| 20260902022204 | 16 | 227 | 0.0 | 4.8 | 0.00 | 0.00 | 0.00 | 77 | 1017.0 |
| 20260902021232 | 16 | 227 | 0.0 | 4.8 | 0.00 | 0.00 | 0.00 | 77 | 1017.0 |
| 20260902015704 | 16 | 227 | 0.0 | 1.6 | 0.00 | 0.00 | 0.00 | 76 | 1017.1 |
| 20260902014704 | 16 | 227 | 0.0 | 1.6 | 0.00 | 0.00 | 0.00 | 76 | 1017.2 |
| 20260902014204 | 17 | 227 | 0.0 | 1.6 | 0.00 | 0.00 | 0.00 | 76 | 1017.3 |
| 20260902013705 | 17 | 227 | 0.0 | 1.6 | 0.00 | 0.00 | 0.00 | 76 | 1017.3 |
| 20260902013204 | 17 | 227 | 0.0 | 1.6 | 0.00 | 0.00 | 0.00 | 76 | 1017.3 |
| 20260902012714 | 17 | 227 | 0.0 | 3.2 | 0.00 | 0.00 | 0.00 | 76 | 1017.3 |
| 20260902012204 | 17 | 227 | 0.0 | 3.2 | 0.00 | 0.00 | 0.00 | 76 | 1017.3 |
| 20260902011704 | 17 | 227 | 0.0 | 3.2 | 0.00 | 0.00 | 0.00 | 75 | 1017.2 |
| 20260902011204 | 17 | 227 | 0.0 | 3.2 | 0.00 | 0.00 | 0.00 | 75 | 1017.3 |
| 20260902010704 | 17 | 233 | 0.0 | 3.2 | 0.00 | 0.00 | 0.00 | 75 | 1017.4 |
| 20260902010204 | 17 | 233 | 1.6 | 4.8 | 0.00 | 0.00 | 0.00 | 75 | 1017.4 |
| 20260902005704 | 17 | 233 | 1.6 | 4.8 | 0.00 | 0.00 | 0.00 | 75 | 1017.4 |
| 20260902005204 | 17 | 233 | 0.0 | 4.8 | 0.00 | 0.00 | 0.00 | 75 | 1017.4 |
| 20260902004704 | 17 | 234 | 0.0 | 6.4 | 0.00 | 0.00 | 0.00 | 75 | 1017.3 |
| 20260902004206 | 17 | 234 | 1.6 | 6.4 | 0.00 | 0.00 | 0.00 | 75 | 1017.4 |
| 20260902003703 | 17 | 234 | 1.6 | 6.4 | 0.00 | 0.00 | 0.00 | 75 | 1017.4 |
| 20260902003204 | 17 | 234 | 0.0 | 4.8 | 0.00 | 0.00 | 0.00 | 75 | 1017.4 |
| 20260902002705 | 17 | 243 | 1.6 | 4.8 | 0.00 | 0.00 | 0.00 | 74 | 1017.5 |
| 20260902002204 | 17 | 243 | 1.6 | 4.8 | 0.00 | 0.00 | 0.00 | 74 | 1017.4 |
| 20260902001705 | 17 | 243 | 1.6 | 4.8 | 0.00 | 0.00 | 0.00 | 74 | 1017.5 |
| 20260902001206 | 17 | 240 | 1.6 | 4.8 | 0.00 | 0.00 | 0.00 | 74 | 1017.4 |
| 20260902000704 | 17 | 241 | 1.6 | 4.8 | 0.00 | 0.00 | 0.00 | 74 | 1017.6 |
| 20260902000204 | 17 | 241 | 1.6 | 4.8 | 0.00 | 0.00 | 0.00 | 74 | 1017.6 |
| 20260901235705 | 17 | 241 | 1.6 | 9.7 | 0.00 | 0.00 | 0.00 | 74 | 1017.6 |
| 20260901235204 | 17 | 243 | 1.6 | 11.3 | 0.00 | 0.00 | 0.00 | 73 | 1017.6 |
| 20260901234704 | 17 | 240 | 1.6 | 11.3 | 0.00 | 0.00 | 0.00 | 73 | 1017.6 |
| 20260901234204 | 17 | 254 | 3.2 | 11.3 | 0.00 | 0.00 | 0.00 | 73 | 1017.6 |
| 20260901233704 | 17 | 196 | 3.2 | 6.4 | 0.00 | 0.00 | 0.00 | 73 | 1017.7 |
| 20260901233203 | 17 | 195 | 0.0 | 6.4 | 0.00 | 0.00 | 0.00 | 73 | 1017.6 |
| 20260901232708 | 17 | 195 | 3.2 | 6.4 | 0.00 | 0.00 | 0.00 | 73 | 1017.6 |
| 20260901232205 | 17 | 193 | 1.6 | 6.4 | 0.00 | 0.00 | 0.00 | 73 | 1017.6 |